Weather History for LTCE - May, 2014

Change the Weather History Date:

Friday, May 9, 2014

  Actual Average Record
Temperature  
Mean Temperature 55 °F -  
Max Temperature 64 °F 64 °F 73 °F (1998)
Min Temperature 46 °F 42 °F 24 °F (2000)
Degree Days  
Heating Degree Days 10    
Growing Degree Days 5 (Base 50)    
Moisture  
Dew Point 47 °F    
Average Humidity 73    
Maximum Humidity 93    
Minimum Humidity 43    
Precipitation  
Precipitation 0.12 in 0.08 in - ()
Sea Level Pressure  
Sea Level Pressure 30.09 in    
Wind  
Wind Speed 12 mph ()    
Max Wind Speed 28 mph    
Max Gust Speed 40 mph    
Visibility 6.8 miles    
Events Rain , Hail , Thunderstorm    
Averages and records for this station are not official NWS values.
T = Trace of Precipitation, MM = Missing Value Source: Averaged Metar Reports

Daily Weather History Graph

Daily Weather History Graph

Search for Another Location

Airport or City:

Trip Planner

Search our weather history database for the weather conditions in past years. The results will help you decide how hot, cold, wet, or windy it might be!

Date:

Astronomy

May. 09, 2014 Rise Set
Actual Time 5:06 AM EEST 7:17 PM EEST
Civil Twilight 4:36 AM EEST 7:47 PM EEST
Nautical Twilight 3:59 AM EEST 8:24 PM EEST
Astronomical Twilight 3:19 AM EEST 9:05 PM EEST
Moon 1:54 PM EEST (5/9) 1:57 AM EEST (5/9)
Length of Visible Light 15h 11m
Length of Day
14h 11m
Waxing Gibbous, 71% of the Moon is Illuminated
May 9
Waxing Gibbous
May 14
Full
May 21
Last Quarter
May 28
New
Jun 5
First Quarter

Hourly Weather History & Observations

Time (EEST) Temp. Windchill Dew Point Humidity Pressure Visibility Wind Dir Wind Speed Gust Speed Precip Events Conditions
12:00 AM 53 °F - 47 °F 75%  in 12 mi ENE 17.3 mph - -   Partly Cloudy
12:20 AM 53.6 °F - 48.2 °F 82% 30.09 in 6.2 mi East 18.4 mph - N/A   Mostly Cloudy
12:50 AM 55.4 °F - 50.0 °F 82% 30.06 in 6.2 mi East 16.1 mph - N/A   Mostly Cloudy
1:20 AM 55.4 °F - 50.0 °F 82% 30.06 in 6.2 mi East 19.6 mph - N/A   Mostly Cloudy
1:50 AM 55.4 °F - 50.0 °F 82% 30.06 in 6.2 mi East 19.6 mph - N/A   Mostly Cloudy
2:20 AM 57.2 °F - 48.2 °F 72% 30.06 in 6.2 mi East 19.6 mph - N/A   Mostly Cloudy
3:00 AM 56 °F - 49 °F 69%  in 12 mi ESE 13.8 mph - -   Partly Cloudy
3:20 AM 55.4 °F - 48.2 °F 77% 30.09 in 6.2 mi East 15.0 mph - N/A   Mostly Cloudy
3:50 AM 55.4 °F - 48.2 °F 77% 30.06 in 6.2 mi East 13.8 mph - N/A   Mostly Cloudy
4:20 AM 55.4 °F - 48.2 °F 77% 30.06 in 6.2 mi ESE 15.0 mph - N/A   Mostly Cloudy
4:50 AM 55.4 °F - 48.2 °F 77% 30.06 in 6.2 mi ESE 18.4 mph - N/A   Mostly Cloudy
5:20 AM 55.4 °F - 48.2 °F 77% 30.06 in 6.2 mi East 15.0 mph - N/A   Mostly Cloudy
5:50 AM 55.4 °F - 48.2 °F 77% 30.09 in 6.2 mi East 11.5 mph - N/A   Mostly Cloudy
6:00 AM 56 °F - 47 °F 65%  in 12 mi East 11.5 mph - -   Partly Cloudy
6:20 AM 57.2 °F - 48.2 °F 72% 30.09 in 6.2 mi East 9.2 mph - N/A   Mostly Cloudy
6:50 AM 57.2 °F - 46.4 °F 67% 30.09 in 6.2 mi East 11.5 mph - N/A   Mostly Cloudy
7:20 AM 57.2 °F - 46.4 °F 67% 30.09 in 6.2 mi ENE 11.5 mph - N/A   Mostly Cloudy
7:41 AM 57.2 °F - 46.4 °F 67% 30.09 in 6.2 mi NE 12.7 mph - N/A Rain Light Rain Showers
7:50 AM 57.2 °F - 48.2 °F 72% 30.09 in 6.2 mi ENE 11.5 mph - N/A Rain Light Rain Showers
8:20 AM 57.2 °F - 46.4 °F 67% 30.12 in 5.0 mi East 12.7 mph - N/A Rain Light Rain Showers
8:50 AM 55.4 °F - 48.2 °F 77% 30.09 in 6.2 mi Variable 9.2 mph - N/A Rain Light Rain Showers
9:00 AM 56 °F - 46 °F 59%  in 12 mi East 9.2 mph - - Rain Light Rain Showers
9:08 AM 59.0 °F - 46.4 °F 63% 30.09 in 6.2 mi ESE 12.7 mph - N/A   Mostly Cloudy
9:20 AM 59.0 °F - 46.4 °F 63% 30.09 in 6.2 mi ESE 13.8 mph - N/A   Mostly Cloudy
9:50 AM 60.8 °F - 48.2 °F 63% 30.09 in 6.2 mi Variable 9.2 mph 25.3 mph N/A   Mostly Cloudy
10:20 AM 60.8 °F - 50.0 °F 68% 30.09 in 6.2 mi ESE 13.8 mph - N/A   Mostly Cloudy
10:50 AM 60.8 °F - 48.2 °F 63% 30.09 in 6.2 mi SE 18.4 mph - N/A   Mostly Cloudy
11:20 AM 60.8 °F - 46.4 °F 59% 30.06 in 6.2 mi SE 9.2 mph - N/A   Mostly Cloudy
11:50 AM 62.6 °F - 46.4 °F 55% 30.09 in 6.2 mi SE 4.6 mph - N/A   Mostly Cloudy
12:00 PM 62 °F - 45 °F 43%  in 12 mi SE 4.6 mph - -   Partly Cloudy
12:20 PM 60.8 °F - 46.4 °F 59% 30.09 in 6.2 mi South 8.1 mph - N/A   Mostly Cloudy
12:45 PM 60.8 °F - 46.4 °F 59% 30.09 in 6.2 mi SSE 8.1 mph - N/A Rain Light Rain Showers
12:50 PM 59.0 °F - 48.2 °F 67% 30.09 in 6.2 mi SSE 8.1 mph - N/A Rain Light Rain Showers
1:20 PM 62.6 °F - 48.2 °F 59% 30.06 in 6.2 mi SE 12.7 mph - N/A   Mostly Cloudy
1:50 PM 60.8 °F - 48.2 °F 63% 30.06 in 6.2 mi ESE 16.1 mph - N/A   Mostly Cloudy
2:20 PM 62.6 °F - 48.2 °F 59% 30.04 in 6.2 mi East 13.8 mph - N/A   Mostly Cloudy
2:36 PM 64.4 °F - 48.2 °F 56% 30.04 in 6.2 mi ESE 16.1 mph - N/A Thunderstorm Thunderstorm
2:50 PM 62.6 °F - 48.2 °F 59% 30.04 in 6.2 mi East 13.8 mph - N/A Thunderstorm Thunderstorm
3:00 PM 62 °F - 47 °F 49%  in 12 mi East 13.8 mph - - Thunderstorm Thunderstorm
3:01 PM 60.8 °F - 46.4 °F 59% 30.09 in 4.3 mi ESE 12.7 mph 40.3 mph N/A Rain , Thunderstorm Light Thunderstorms and Rain
3:06 PM 60.8 °F - 46.4 °F 59% 30.04 in 3.7 mi East 13.8 mph - N/A Rain , Hail , Thunderstorm Light Thunderstorms with Hail
3:20 PM 46.4 °F 37.5 °F 44.6 °F 93% 30.09 in 3.7 mi West 27.6 mph 39.1 mph N/A Rain , Thunderstorm Light Thunderstorms and Rain
3:50 PM 48.2 °F - 46.4 °F 93% 30.12 in 6.2 mi West 8.1 mph - N/A Rain , Thunderstorm Light Thunderstorms and Rain
4:20 PM 50.0 °F - 46.4 °F 87% 30.12 in 6.2 mi SW 5.8 mph - N/A Rain , Thunderstorm Light Thunderstorms and Rain
4:50 PM 50.0 °F - 46.4 °F 87% 30.12 in 6.2 mi West 8.1 mph - N/A Rain , Thunderstorm Light Thunderstorms and Rain
5:01 PM 51.8 °F - 46.4 °F 82% 30.15 in 6.2 mi West 9.2 mph - N/A   Mostly Cloudy
5:20 PM 51.8 °F - 46.4 °F 82% 30.15 in 6.2 mi SW 3.5 mph - N/A   Mostly Cloudy
5:50 PM 51.8 °F - 44.6 °F 76% 30.12 in 6.2 mi Variable 2.3 mph - N/A Rain Light Rain Showers
6:00 PM 52 °F - 45 °F 71%  in 12 mi SW 3.5 mph - - Thunderstorm Light Thunderstorm
6:01 PM 51.8 °F - 44.6 °F 76% 30.12 in 6.2 mi Variable 2.3 mph - N/A Rain Light Rain Showers
6:20 PM 51.8 °F - 44.6 °F 76% 30.12 in 6.2 mi Variable 1.2 mph - N/A   Mostly Cloudy
6:50 PM 51.8 °F - 46.4 °F 82% 30.12 in 6.2 mi Variable 1.2 mph - N/A   Mostly Cloudy
7:20 PM 50.0 °F - 46.4 °F 87% 30.12 in 6.2 mi ESE 6.9 mph - N/A   Mostly Cloudy
7:50 PM 50.0 °F - 46.4 °F 87% 30.12 in 6.2 mi ESE 4.6 mph - N/A   Mostly Cloudy
8:20 PM 48.2 °F - 46.4 °F 93% 30.12 in 6.2 mi NE 4.6 mph - N/A   Mostly Cloudy
8:50 PM 48.2 °F - 44.6 °F 87% 30.12 in 6.2 mi North 4.6 mph - N/A   Mostly Cloudy
9:00 PM 48 °F - 45 °F 86%  in 12 mi North 4.6 mph - -   Partly Cloudy
9:20 PM 48.2 °F - 44.6 °F 87% 30.12 in 6.2 mi NE 4.6 mph - N/A   Mostly Cloudy
9:50 PM 48.2 °F - 44.6 °F 87% 30.12 in 6.2 mi NE 4.6 mph - N/A   Mostly Cloudy
10:20 PM 48.2 °F - 44.6 °F 87% 30.12 in 6.2 mi Variable 2.3 mph - N/A   Mostly Cloudy
10:50 PM 48.2 °F - 44.6 °F 87% 30.12 in 6.2 mi East 6.9 mph - N/A   Mostly Cloudy
11:20 PM 46.4 °F 43.5 °F 42.8 °F 87% 30.12 in 6.2 mi SE 5.8 mph - N/A   Mostly Cloudy
11:50 PM 46.4 °F - 44.6 °F 93% 30.12 in 6.2 mi Calm Calm - N/A   Mostly Cloudy